Regional Weather Roundup
Issued by NWS

Home | Current Version | Previous Version | Text Only | Print | Product List | Glossary Off
Versions: 1 2 3 4 5 6 7 8 9 10 11 12 13 14 15 16 17 18 19 20 21 22 23 24 25 26 27 28 29 30 31 32 33 34 35 36 37 38 39 40 41 42 43 44 45 46 47 48 49 50

000
ASUS43 KBIS 241302
RWRND

NORTH DAKOTA REGIONAL WEATHER ROUNDUP
NATIONAL WEATHER SERVICE BISMARCK ND
700 AM CST FRI NOV 24 2017

NOTE: "FAIR" INDICATES FEW OR NO CLOUDS BELOW 12,000 FEET WITH NO
SIGNIFICANT WEATHER AND/OR OBSTRUCTIONS TO VISIBILITY.


NDZ001>003-009>011-017-241400-
NORTHWEST NORTH DAKOTA

CITY           SKY/WX    TMP DP  RH WIND       PRES   REMARKS
WILLISTON      CLOUDY    42  36  79 NW15      29.53R
MINOT          LGT RAIN  42  38  85 W18G25    29.40R
MINOT AFB      CLOUDY    41  38  87 NW17      29.39R
$$

NDZ018>021-031>035-040>046-241400-
SOUTHWEST NORTH DAKOTA

CITY           SKY/WX    TMP DP  RH WIND       PRES   REMARKS
BISMARCK       CLOUDY    53  46  77 W14       29.39F
DICKINSON      CLOUDY    47  42  83 W29G35    29.46R
GARRISON         N/A     40  38  93 NW20G31   29.42R
HETTINGER ARPT CLOUDY    45  42  89 W13       29.55R
$$

NDZ004>008-012>016-024-026-027-054-241400-
NORTHEAST NORTH DAKOTA

CITY           SKY/WX    TMP DP  RH WIND       PRES   REMARKS
GRAND FORKS    LGT RAIN  38  36  92 W8        29.29R
GRND FRKS AFB  CLOUDY    39  37  91 NW7       29.29S
DEVILS LAKE    LGT RAIN  38  36  92 W9        29.34R
$$

NDZ022-023-025-028>030-036>039-047>053-241400-
SOUTHEAST NORTH DAKOTA

CITY           SKY/WX    TMP DP  RH WIND       PRES   REMARKS
FARGO          CLOUDY    46  37  71 CALM      29.30R
JAMESTOWN      LGT RAIN  48  41  76 W13       29.36R
$$





USA.gov is the U.S. government's official web portal to all federal, state and local government web resources and services.